FENGYUN 1C DEB, 31012

Orbit data source: Space-Track

FENGYUN 1C DEB, 31012 is space debris in SSO originally from a launch on Mon, 10 May 1999 UTC launched from the Taiyaun Space Center, China (TSC). Fengyun 1C debris stems from the Chinese weather satellite Fengyun-1C, which was intentionally destroyed by a Chinese anti-satellite missile in 2007. This event dramatically increased the amount of space debris, with thousands of trackable fragments posing hazards to satellites and human spaceflight. The Fengyun 1C debris cloud has become a focal point in discussions about space sustainability and the need for international regulations to prevent the creation of new debris.

Loading next visibility...
Identifier
31012, 1999-025BDE
Orbit
SSO
Country
Flag of CNCN / PRC
Related business
Manufacturer
Unknown
Mission
Spacecraft
Bus & Motor
Unknown
Mass
Unknown
Launch date (UTC)
1999-05-10 (27 years ago)
Launch vehicle
Unknown
Launch site
Taiyaun Space Center, China (TSC)
Object type
Payload
Rocket body
Debris
Shape & HBR
Unknown shape, 0.1 m
Radar Cross Section
Small (<0.1 m²)

Expand to show TLE details & history
Last TLE update: 9 hours ago

TLE from 9 hours ago
0 FENGYUN 1C DEB
1 31012U 99025BDE 26095.25462027  .00000533  00000-0  22595-3 0  9999
2 31012  98.9041   0.6049 0081135 282.4366 205.8030 14.27983769993676
Epoch: 2026-04-05T06:06Z
TLE epoch observation values (Epoch: 2026-04-05T06:06:39.191Z)
Latitude
51.38123°
Longitude
-93.37097°
Altitude
859.241 km
Speed
7.401 km/s
True Right ascension
12h 47m 25s
True Declination
51° 12' 57"
Sunlit
Object was in full shadow at epoch
Visualization orbit readout
Latitude
Unknown
Longitude
Unknown
Altitude
Unknown
Speed
Unknown
Apparent Right ascension
Unknown
Apparent Declination
Unknown
Sunlit
N/A
Visualization observer readout
Local Sidereal Time
20:38:42
Azimuth
Unknown
Elevation
Unknown
Doppler factor
Unknown
Orbital elements
Apogee altitude
853.84 km
Perigee altitude
737.431 km
Semi-major axis
7,173.772 km
Eccentricity
0.00811
Inclination
98.9041°
RAAN
0.6049°
Arg. of periapsis
282.4366°
True anomaly
205.40197°
Mean anomaly
205.803°
Eccentric anomaly
205.60212°
Mean motion
3.57209 °/min
Orbital period
100.78 mins
BSTAR
0.00022595
Loading maneuver chart data...
Computing Atmospheric mass density...

Documentation

Showing up to 5 results
|